Location: Peebles
(55.6412°N, 3.1714°W)
Time: 16:49:31
(UTC+01:00)

DMSP 7529 - Visible Passes

Search period start: 03 July 2022 00:00
Search period end: 13 July 2022 00:00
Orbit: 766 x 803 km, 98.7° (Epoch: 03 July)

Date Brightness Start Highest point End Pass type
(mag) Time Alt. Az. Time Alt. Az. Time Alt. Az.
03 Jul 8.2 23:49:58 10° NNW 23:52:07 13° NW 23:54:15 10° WNW visible
04 Jul 7.9 23:18:03 10° N 23:21:33 18° NW 23:25:01 10° W visible
06 Jul 8.3 23:56:23 10° NNW 23:58:10 12° NW 23:59:56 10° WNW visible
07 Jul 8.0 23:24:19 10° N 23:27:36 17° NW 23:30:54 10° W visible
08 Jul 7.7 22:52:44 10° N 22:56:57 25° NW 23:01:08 10° WSW visible
10 Jul 8.5 00:02:52 10° NNW 00:04:12 11° NW 00:05:32 10° NW visible
10 Jul 8.0 23:30:36 10° N 23:33:40 16° NW 23:36:45 10° W visible
11 Jul 7.8 22:58:57 10° N 23:03:01 23° NW 23:07:05 10° WSW visible
